TimeCST,TemperatureF,Dew PointF,Humidity,Sea Level PressureIn,VisibilityMPH,Wind Direction,Wind SpeedMPH,Gust SpeedMPH,PrecipitationIn,Events,Conditions,WindDirDegrees,DateUTC
12:56 AM,5.0,-0.9,76,30.15,10.0,NNW,15.0,-,N/A,,Clear,330,2014-02-12 06:56:00
1:56 AM,3.0,-2.9,76,30.17,10.0,NNW,15.0,-,N/A,,Clear,330,2014-02-12 07:56:00
2:56 AM,1.0,-5.1,75,30.18,10.0,NNW,13.8,-,N/A,,Clear,340,2014-02-12 08:56:00
3:56 AM,1.0,-5.1,75,30.20,10.0,NNW,12.7,-,N/A,,Clear,330,2014-02-12 09:56:00
4:56 AM,-0.0,-5.1,79,30.20,10.0,WNW,5.8,-,N/A,,Clear,300,2014-02-12 10:56:00
5:56 AM,-0.9,-6.0,79,30.20,10.0,West,5.8,-,N/A,,Clear,280,2014-02-12 11:56:00
6:56 AM,-2.9,-7.1,82,30.22,10.0,West,4.6,-,N/A,,Clear,280,2014-02-12 12:56:00
7:56 AM,-4.0,-9.0,79,30.22,10.0,West,5.8,-,N/A,,Clear,280,2014-02-12 13:56:00
8:56 AM,-2.9,-8.0,79,30.21,10.0,West,3.5,-,N/A,,Clear,260,2014-02-12 14:56:00
9:56 AM,-0.0,-8.0,69,30.16,10.0,Calm,Calm,-,N/A,,Clear,0,2014-02-12 15:56:00
10:56 AM,1.9,-5.1,72,30.15,10.0,South,6.9,-,N/A,,Clear,190,2014-02-12 16:56:00
11:56 AM,5.0,-2.0,73,30.11,10.0,South,10.4,-,N/A,,Clear,170,2014-02-12 17:56:00
12:56 PM,9.0,1.0,70,30.04,10.0,South,16.1,-,N/A,,Clear,180,2014-02-12 18:56:00
1:16 PM,10.0,1.9,70,29.90,10.0,South,15.0,-,N/A,,Mostly Cloudy,170,2014-02-12 19:16:00
1:56 PM,12.0,3.9,70,29.96,10.0,South,19.6,-,N/A,,Mostly Cloudy,170,2014-02-12 19:56:00
2:06 PM,12.0,5.0,73,29.83,10.0,South,19.6,-,N/A,,Scattered Clouds,180,2014-02-12 20:06:00
2:28 PM,12.0,5.0,73,29.80,10.0,South,18.4,-,N/A,,Mostly Cloudy,180,2014-02-12 20:28:00
2:56 PM,12.9,5.0,71,29.88,10.0,South,20.7,-,N/A,,Mostly Cloudy,180,2014-02-12 20:56:00
3:04 PM,14.0,6.1,71,29.77,10.0,South,17.3,-,N/A,,Scattered Clouds,170,2014-02-12 21:04:00
3:56 PM,12.9,6.1,74,29.85,10.0,South,16.1,-,N/A,,Clear,170,2014-02-12 21:56:00
4:56 PM,12.0,6.1,77,29.82,10.0,SE,15.0,-,N/A,,Clear,140,2014-02-12 22:56:00
5:56 PM,10.9,6.1,81,29.77,10.0,SE,17.3,-,N/A,,Overcast,140,2014-02-12 23:56:00
6:56 PM,10.9,6.1,81,29.71,10.0,SSE,21.9,-,N/A,,Mostly Cloudy,150,2014-02-13 00:56:00
7:56 PM,12.0,7.0,80,29.65,10.0,SSE,20.7,-,N/A,,Scattered Clouds,150,2014-02-13 01:56:00
8:56 PM,14.0,9.0,80,29.55,10.0,SSE,24.2,31.1,N/A,,Overcast,150,2014-02-13 02:56:00
9:33 PM,16.0,10.9,81,29.42,2.5,South,23.0,32.2,0.00,Snow,Light Snow,170,2014-02-13 03:33:00
9:40 PM,16.0,12.0,84,29.41,1.0,South,23.0,31.1,0.00,Snow,Light Snow,170,2014-02-13 03:40:00
9:48 PM,16.0,12.9,88,29.39,0.8,SSE,24.2,31.1,0.00,Snow,Light Snow,160,2014-02-13 03:48:00
9:56 PM,15.1,12.9,91,29.48,0.8,SSE,20.7,31.1,0.01,Snow,Light Snow,160,2014-02-13 03:56:00
10:14 PM,15.1,12.9,91,29.36,1.5,SSE,19.6,-,0.00,Snow,Light Snow,160,2014-02-13 04:14:00
10:17 PM,15.1,12.9,91,29.35,2.0,SSE,19.6,-,0.00,Snow,Light Snow,160,2014-02-13 04:17:00
10:26 PM,16.0,12.9,88,29.36,5.0,South,20.7,28.8,0.00,,Overcast,170,2014-02-13 04:26:00
10:56 PM,17.1,14.0,88,29.41,4.0,South,23.0,-,0.00,,Overcast,170,2014-02-13 04:56:00
11:56 PM,19.0,15.1,85,29.36,10.0,South,18.4,-,0.00,,Mostly Cloudy,180,2014-02-13 05:56:00